Location: Powder Track
(41.8531°N, 72.3584°W)
Time: 18:25:02
(UTC+00:00)

Vanguard 1 Rocket - Pass Details

Date: 06 August 2021
Orbit: 650 x 4226 km, 34.3° (Epoch: 20 September)

Event Time Altitude Azimuth Distance (km) Brightness Sun altitude
Rises 14:59:07 0° 253° (WSW) 8,337 12.1 54.5°
Reaches altitude 10° 15:05:23 10° 251° (WSW) 7,053 11.8 55.4°
Maximum altitude 15:26:39 64° 177° (S) 2,815 11.6 58.3°
Drops below altitude 10° 15:37:45 10° 99° (E) 3,962 11.2 59.7°
Sets 15:40:13 0° 96° (E) 4,623 11.3 60.0°
